SCP
-0 -0 -0 -0 -0 -0 -0 -0 -0 -0 -0 -0 -0 -0 -0 -0 0 -0 0 -0 0 0 -0 0 0 0 0 0 0 0 0 0 0 0 0 0 0 0 0 0 0 0 0 0 0
-0 -0 -0 -0 -0 -0 -0 -0 0 0 0 -0 -0 -0 -0 -0 0 0 0 0 0 -0 -0 -0 0 0 0 0 0 0 0 0 0 0 0 0 0 0 0 0 0 0 0 0 0
-0 -0 -0 -0 -0 -0 -0 -0 0 0 0 0 -0 -0 -0 -0 -0 0 0 0 0 -0 0 0 0 0 0 0 0 0 0 0 0 0 0 0 0 0 0 0 0 0 0 0 0
-0 -0 -0 -0 -0 0 0 0 0 0 0 0 -0 0 0 -0 0 0 0 0 0 -0 0 0 0 0 0 0 0 0 0 0 0 0 0 0 0 0 0 0 0 0 0 0 0
-0 -0 -0 -0 -0 0 0 0 0 0 0 0 0 0 -0 -0 0 0 0 0 0 0 0 0 0 0 0 0 0 0 0 0 0 0 0 0 0 0 0 0 0 0 0 0 0
-0 -0 -0 -0 -0 -0 -0 -0 -0 -0 -0 -0 -0 -0 -0 -0 0 0 0 0 0 0 0 0 0 0 0 0 0 0 0 0 0 0 0 0 0 0 0 0 0 0 0 0 0
-0 -0 -0 -0 -0 -0 -0 -0 -0 -0 -0 -0 -0 -0 -0 0 0 0 0 0 0 0 0 0 0 0 0 0 0 0 0 0 0 0 0 0 0 0 0 0 0 0 0 0 0
-0 -0 -0 -0 -0 -0 0 -0 -0 -0 -0 -0 0 0 0 0 0 0 0 0 0 0 0 0 0 0 0 0 0 0 0 0 0 0 0 0 0 0 0 0 0 0 0 0 0
-0 -0 -0 -0 -0 -0 0 -0 0 0 0 0 0 0 0 0 0 0 0 0 0 0 0 0 0 0 0 0 0 0 0 0 0 0 0 0 0 0 0 0 0 -0 -0 0 0
-0 -0 -0 -0 0 0 -0 0 0 0 0 0 0 0 0 0 0 0 0 0 0 0 0 0 0 0 0 0 0 0 0 0 0 0 0 0 0 0 0 0 0 0 0 0 0
-0 -0 -0 -0 0 0 -0 0 0 0 0 0 0 0 0 0 0 0 0 0 0 -0 -0 0 -0 0 0 0 0 0 0 0 0 0 0 0 0 0 0 0 0 0 0 0 0
-0 -0 -0 -0 0 -0 0 0 0 0 0 0 0 0 0 0 0 0 0 0 0 -0 0 0 -0 0 0 0 0 0 0 0 0 0 0 0 0 0 0 0 0 0 0 0 0
-0 -0 0 0 0 0 0 0 0 0 0 0 0 0 0 0 0 0 0 -0 0 -0 0 -0 0 0 0 0 0 0 0 0 0 0 0 0 0 0 0 0 0 0 0 0 0
0 0 0 0 0 0 0 0 0 0 0 0 0 0 0 -0 0 -0 -0 0 0 0 0 0 0 0 -0 -0 0 0 0 0 0 0 0 0 0 0 0 0 0 0 0 0 0
0 0 0 -0 0 0 0 0 0 0 0 0 0 0 0 0 0 0 0 0 0 0 0 0 0 0 0 0 0 0 0 0 0 0 0 0 0 0 0 0 0 0 0 0 0
0 0 -0 0 0 0 0 0 0 0 0 0 0 0 0 0 0 0 0 0 0 0 0 0 0 0 0 0 0 0 0 0 0 0 0 0 0 0 0 0 0 0 0 0 0
0 0 0 0 0 -0 -0 0 0 0 0 0 0 0 0 0 0 0 0 0 0 0 0 0 0 0 0 0 0 0 0 0 0 0 0 0 0 0 0 0 0 0 0 0 0
0 0 0 0 0 0 0 0 0 0 0 0 0 0 0 0 0 0 0 0 0 0 0 0 0 0 0 0 0 0 0 0 0 0 0 0 0 0 0 -0 0 0 0 0 0
0 0 0 0 0 0 0 0 0 0 0 0 0 0 0 0 0 0 0 0 0 0 0 0 0 0 0 0 0 0 0 0 0 0 0 0 0 0 0 0 0 0 0 0 0
0 0 0 0 0 0 0 0 0 0 0 0 0 0 0 0 0 0 0 0 0 0 0 0 0 0 0 0 0 0 0 0 0 0 0 0 0 0 0 0 0 0 0 0 0
-0 -0 0 0 0 0 0 0 0 0 0 0 0 0 0 0 0 0 0 0 0 0 0 0 0 0 0 0 0 0 0 0 0 0 0 0 0 0 0 0 0 0 0 0 0
-0 -0 0 0 0 0 0 0 0 0 0 0 0 0 0 0 0 0 0 0 0 0 0 0 0 0 0 0 0 0 0 0 0 0 0 0 0 0 0 0 0 0 0 0 0
-0 -0 0 0 0 0 0 0 0 0 0 0 0 0 0 0 0 0 0 0 0 0 0 0 0 0 0 0 0 0 0 0 0 0 0 0 0 0 0 0 0 0 0 0 0
-0 -0 0 0 0 0 0 0 0 0 0 0 0 0 0 0 0 0 0 0 0 0 0 0 0 0 0 0 0 0 0 0 0 1 0 0 0 0 0 0 0 0 0 0 0
-0 0 0 0 0 0 0 0 0 0 0 0 0 0 0 0 0 0 0 0 0 0 0 0 0 0 0 0 0 0 0 0 0 0 0 0 0 0 0 0 0 0 0 0 0
0 0 0 0 0 0 0 0 0 0 0 0 0 0 0 0 0 0 0 0 0 0 0 0 0 0 0 0 0 0 0 0 0 0 0 0 0 0 0 0 0 0 0 0 0
0 0 0 0 0 0 0 0 0 0 0 0 0 0 0 0 0 0 0 0 0 0 0 0 0 0 0 0 0 0 0 0 -0 -0 0 0 0 0 0 0 0 0 0 0 0
Wind_Speed_500mb
34 30 28 28 27 22 15 11 11 10 9 7 7 14 13 16 26 20 11 11 11 10 11 13 8 13 11 10 6 7 13 19 20 22 17 12 11 6 3 6 10 10 13 13 13
36 32 28 26 27 24 16 10 8 10 10 8 7 13 9 17 14 13 21 21 18 16 9 11 13 18 13 11 10 16 16 11 10 6 12 11 7 2 10 11 10 7 5 4 6
40 35 32 25 23 23 18 9 6 6 6 5 6 11 6 15 9 11 14 15 15 13 10 8 13 15 12 13 9 10 11 9 17 10 6 9 13 10 13 17 13 14 12 10 10
45 40 34 29 22 19 16 9 6 2 0 3 6 12 2 19 2 14 11 13 16 19 5 6 14 18 13 13 9 14 5 8 14 11 9 13 11 21 22 20 3 11 13 15 17
46 44 39 32 24 17 13 9 4 4 4 5 7 8 3 9 10 19 16 11 10 8 7 4 13 13 17 10 13 12 14 9 11 13 17 11 19 20 21 12 11 13 14 17 19
45 44 42 37 29 20 13 9 6 5 7 8 9 7 4 13 18 18 10 4 4 2 3 5 3 6 8 8 19 7 11 12 10 10 16 20 13 11 19 11 13 12 17 20 22
48 45 41 39 35 25 17 13 12 11 11 11 9 9 12 1 16 15 10 8 8 4 2 3 5 7 7 13 5 10 20 17 18 12 13 12 21 21 13 15 21 26 27 28 27
48 48 45 42 36 27 17 14 15 16 17 14 14 9 14 19 22 17 13 12 9 7 3 5 3 3 8 3 12 21 18 23 19 14 15 12 20 25 17 21 32 36 37 39 41
48 47 46 44 38 26 14 12 15 19 19 20 11 8 11 20 19 15 17 15 12 7 7 7 7 6 11 19 16 18 19 22 16 15 5 18 21 9 21 27 35 40 43 44 44
51 44 44 43 36 23 11 14 19 18 12 8 14 10 18 18 18 14 14 16 12 12 10 13 14 16 15 17 18 10 19 16 21 17 19 26 31 24 26 32 35 40 40 36 35
56 51 40 39 33 17 9 13 8 3 8 21 10 13 7 13 20 19 15 16 12 15 18 10 18 22 18 10 16 17 19 23 16 14 18 27 30 29 30 34 28 26 27 25 27
53 52 47 36 27 10 5 3 3 11 20 25 31 34 34 11 18 25 20 20 21 21 9 14 21 17 7 11 18 21 26 27 19 20 16 30 36 33 34 35 24 20 20 23 21
54 54 49 34 15 8 1 5 9 15 14 7 7 8 15 36 26 25 29 30 20 21 20 20 13 8 19 19 20 24 26 24 25 23 25 33 40 40 14 25 26 25 23 22 22
54 55 50 36 6 14 4 10 11 10 9 12 9 8 10 16 21 32 29 25 17 20 19 18 2 14 22 21 19 26 19 23 29 25 25 3 21 19 26 25 29 40 28 24 19
51 47 44 38 17 6 10 6 7 3 11 7 12 7 12 15 5 15 26 25 28 19 14 7 16 16 22 22 16 28 12 24 29 30 32 31 22 26 8 21 23 28 23 18 13
49 40 36 36 18 9 7 6 3 11 11 10 8 7 11 19 12 9 15 24 14 27 30 37 33 20 31 21 18 19 24 25 25 27 30 39 33 20 21 19 21 23 22 19 18
46 32 25 23 16 4 5 5 10 12 6 7 4 4 11 10 11 18 23 24 23 25 29 35 38 37 30 34 30 23 29 20 24 20 23 7 14 29 3 12 15 21 27 23 21
44 23 16 21 15 5 3 11 14 7 4 5 6 17 14 9 14 14 19 27 31 36 35 35 39 28 25 38 34 25 29 24 27 24 20 17 14 11 11 26 26 23 24 28 23
46 9 15 22 5 0 13 13 9 6 11 14 18 20 19 9 10 14 25 25 29 18 33 29 40 21 13 27 25 31 23 33 41 40 32 34 44 23 25 24 23 30 31 33 26
49 7 21 22 11 3 10 6 5 13 16 12 16 8 20 18 22 17 16 13 18 8 21 28 33 32 25 16 23 28 30 21 23 32 44 32 35 20 9 26 28 28 36 39 35
32 6 21 26 6 13 12 7 4 12 22 14 11 19 24 25 18 25 14 15 22 24 35 27 33 37 37 30 36 23 32 32 31 32 34 38 29 13 5 17 24 26 39 27 30
21 5 36 12 4 5 3 8 12 15 19 8 13 14 16 15 23 27 26 23 22 31 28 17 13 30 37 34 29 35 43 35 26 34 35 37 41 25 22 20 16 19 17 24 19
25 11 21 22 4 7 7 5 7 16 15 10 8 8 10 16 15 21 20 13 30 28 21 21 16 26 39 36 35 33 51 45 46 32 46 40 41 10 7 18 21 28 22 28 38
16 8 11 23 16 10 11 4 6 11 4 11 15 12 16 20 20 18 22 20 21 38 29 17 30 36 36 46 42 39 42 49 46 32 51 42 59 49 28 24 28 40 52 45 47
13 8 6 7 8 11 7 5 9 5 5 12 8 9 15 13 25 31 22 33 42 35 40 11 37 37 48 50 41 37 40 48 47 56 55 55 52 49 40 36 35 61 43 43 48
10 11 8 14 7 11 2 4 10 5 9 10 11 9 18 26 29 40 37 31 27 22 27 29 32 29 50 45 46 48 47 47 47 51 39 51 54 50 64 68 52 38 35 33 30
9 9 7 1 4 9 5 5 7 14 12 18 20 24 29 30 27 34 42 49 49 40 38 37 34 34 52 37 44 44 44 48 53 46 49 46 54 62 51 24 22 25 24 25 27
Wind_Direction_500mb
21 14 13 17 18 19 20 32 39 56 93 106 54 16 39 74 110 100 96 128 108 115 128 139 133 160 160 165 181 218 232 203 191 192 145 156 193 127 126 118 88 105 108 115 103
21 16 8 6 11 12 14 27 53 78 103 101 53 25 103 111 112 111 105 101 97 94 106 168 162 162 162 171 181 240 244 189 144 161 183 163 244 154 221 178 166 162 158 137 135
21 15 9 2 1 8 8 16 43 81 104 102 30 17 141 149 178 133 118 97 83 86 94 140 163 189 170 191 167 176 247 145 166 169 230 238 240 226 245 225 215 226 217 226 244
17 15 10 1 354 354 7 7 13 20 355 323 345 3 107 190 285 163 132 105 95 78 71 154 183 192 191 185 175 195 160 184 159 180 230 236 278 256 243 259 246 237 233 241 243
13 11 7 1 351 339 344 355 340 332 318 309 317 346 131 203 172 156 133 111 83 72 71 120 197 196 197 173 180 232 172 191 200 233 236 247 257 266 246 235 240 233 233 230 240
9 6 3 358 348 333 316 313 311 311 305 301 304 306 283 235 183 175 167 152 169 123 67 72 128 203 175 192 233 153 210 214 204 191 202 229 235 226 211 211 226 242 241 235 240
8 3 359 355 348 333 311 298 289 294 297 300 301 294 250 139 183 190 207 214 210 204 174 124 125 232 185 182 180 203 232 194 197 179 174 244 231 224 194 226 242 248 248 246 245
4 4 358 352 348 335 320 303 294 296 292 286 282 287 250 217 205 210 214 217 219 228 199 199 189 179 246 150 198 224 236 207 164 198 157 238 265 171 235 241 259 265 262 259 253
356 356 358 354 347 338 329 321 295 286 285 290 274 243 247 209 208 209 200 196 179 188 175 181 192 237 191 223 208 199 238 222 166 214 198 222 272 225 244 266 271 266 261 260 258
351 348 347 353 349 341 328 325 310 295 275 270 229 245 226 204 188 177 183 177 187 174 175 205 217 225 216 226 244 227 233 212 249 170 239 258 258 255 261 270 275 263 256 253 255
347 344 340 342 347 342 337 345 305 230 240 257 279 243 158 180 190 197 193 188 201 227 242 203 255 228 237 246 303 280 268 265 262 262 267 266 272 271 271 274 267 243 234 235 247
347 342 341 333 341 351 1 331 31 311 297 277 260 247 240 211 208 204 193 208 207 238 191 225 236 269 240 245 250 247 256 256 259 258 269 275 274 273 273 262 245 247 233 237 239
350 344 346 335 326 347 260 192 317 329 272 295 236 239 213 205 215 209 205 212 226 235 231 271 317 293 212 224 243 240 259 270 275 289 266 267 274 256 229 224 225 244 241 239 245
351 347 355 353 353 325 198 242 308 326 271 132 162 139 155 186 219 222 207 207 218 248 252 272 113 222 233 244 244 269 257 258 272 272 273 87 285 269 241 239 243 237 222 224 231
350 346 353 2 330 314 226 228 300 311 280 112 108 143 177 210 99 179 206 215 244 221 237 267 207 222 243 253 268 274 312 273 272 270 276 259 253 274 192 227 205 201 204 199 196
349 344 347 -0 9 333 219 234 286 235 235 132 110 170 201 220 229 141 197 219 267 265 243 262 270 264 258 268 261 272 269 254 255 259 258 250 239 256 228 219 196 186 188 176 163
350 348 347 355 336 275 184 196 231 246 90 105 77 341 300 260 250 236 224 209 237 244 249 243 242 241 252 254 226 246 254 258 243 216 252 100 254 245 246 212 199 190 187 180 170
351 343 358 14 11 156 209 219 243 66 331 40 317 302 268 331 246 286 264 260 252 255 272 275 275 243 223 237 261 231 249 248 274 267 268 144 243 248 279 238 221 224 215 189 191
353 357 13 1 354 286 255 237 353 16 357 328 305 273 259 170 323 296 276 279 289 277 258 276 276 250 264 255 255 246 237 267 275 271 271 263 267 229 219 240 232 216 214 200 189
348 68 3 354 345 294 250 278 119 39 339 316 289 271 288 305 305 291 300 319 297 276 297 285 290 267 265 246 245 253 277 230 230 262 261 258 251 255 190 214 223 226 211 211 196
357 318 339 346 324 244 263 49 44 36 13 335 319 293 291 293 290 292 284 295 16 339 322 292 279 269 270 235 255 224 236 231 264 263 273 273 268 35 4 254 241 220 216 217 210
1 302 346 9 235 9 13 357 336 356 2 341 301 309 303 310 291 280 273 268 20 342 312 306 292 278 267 270 271 283 273 256 248 256 249 258 264 284 282 220 230 215 213 209 223
340 317 350 23 44 44 359 324 6 1 18 8 311 12 351 298 295 269 279 302 348 333 355 337 268 289 275 248 243 244 248 253 255 264 257 259 263 155 243 259 237 243 233 245 273
337 329 21 48 51 0 358 18 353 23 61 349 314 293 308 283 266 280 290 290 327 315 332 293 261 255 263 275 312 301 282 261 250 236 243 241 262 263 228 205 231 248 276 278 276
358 38 10 341 51 353 303 329 322 334 340 318 277 257 318 289 304 279 293 314 299 279 279 261 275 277 272 275 279 284 295 301 293 256 251 254 249 256 268 275 306 288 291 280 272
357 344 324 291 296 301 139 86 327 348 304 308 261 295 295 287 284 290 292 286 284 289 273 274 270 287 277 278 278 275 258 242 255 280 286 283 268 267 275 279 266 276 268 260 256
14 337 309 221 287 292 40 25 324 316 261 250 294 301 293 298 300 290 282 273 266 272 272 272 269 265 269 282 281 261 255 250 254 240 237 249 261 269 272 292 258 247 254 260 265
Wind_Speed_850mb
34 30 28 28 27 22 15 11 11 10 9 7 7 14 13 16 26 20 11 11 11 10 11 13 8 13 11 10 6 7 13 19 20 22 17 12 11 6 3 6 10 10 13 13 13
36 32 28 26 27 24 16 10 8 10 10 8 7 13 9 17 14 13 21 21 18 16 9 11 13 18 13 11 10 16 16 11 10 6 12 11 7 2 10 11 10 7 5 4 6
40 35 32 25 23 23 18 9 6 6 6 5 6 11 6 15 9 11 14 15 15 13 10 8 13 15 12 13 9 10 11 9 17 10 6 9 13 10 13 17 13 14 12 10 10
45 40 34 29 22 19 16 9 6 2 0 3 6 12 2 19 2 14 11 13 16 19 5 6 14 18 13 13 9 14 5 8 14 11 9 13 11 21 22 20 3 11 13 15 17
46 44 39 32 24 17 13 9 4 4 4 5 7 8 3 9 10 19 16 11 10 8 7 4 13 13 17 10 13 12 14 9 11 13 17 11 19 20 21 12 11 13 14 17 19
45 44 42 37 29 20 13 9 6 5 7 8 9 7 4 13 18 18 10 4 4 2 3 5 3 6 8 8 19 7 11 12 10 10 16 20 13 11 19 11 13 12 17 20 22
48 45 41 39 35 25 17 13 12 11 11 11 9 9 12 1 16 15 10 8 8 4 2 3 5 7 7 13 5 10 20 17 18 12 13 12 21 21 13 15 21 26 27 28 27
48 48 45 42 36 27 17 14 15 16 17 14 14 9 14 19 22 17 13 12 9 7 3 5 3 3 8 3 12 21 18 23 19 14 15 12 20 25 17 21 32 36 37 39 41
48 47 46 44 38 26 14 12 15 19 19 20 11 8 11 20 19 15 17 15 12 7 7 7 7 6 11 19 16 18 19 22 16 15 5 18 21 9 21 27 35 40 43 44 44
51 44 44 43 36 23 11 14 19 18 12 8 14 10 18 18 18 14 14 16 12 12 10 13 14 16 15 17 18 10 19 16 21 17 19 26 31 24 26 32 35 40 40 36 35
56 51 40 39 33 17 9 13 8 3 8 21 10 13 7 13 20 19 15 16 12 15 18 10 18 22 18 10 16 17 19 23 16 14 18 27 30 29 30 34 28 26 27 25 27
53 52 47 36 27 10 5 3 3 11 20 25 31 34 34 11 18 25 20 20 21 21 9 14 21 17 7 11 18 21 26 27 19 20 16 30 36 33 34 35 24 20 20 23 21
54 54 49 34 15 8 1 5 9 15 14 7 7 8 15 36 26 25 29 30 20 21 20 20 13 8 19 19 20 24 26 24 25 23 25 33 40 40 14 25 26 25 23 22 22
54 55 50 36 6 14 4 10 11 10 9 12 9 8 10 16 21 32 29 25 17 20 19 18 2 14 22 21 19 26 19 23 29 25 25 3 21 19 26 25 29 40 28 24 19
51 47 44 38 17 6 10 6 7 3 11 7 12 7 12 15 5 15 26 25 28 19 14 7 16 16 22 22 16 28 12 24 29 30 32 31 22 26 8 21 23 28 23 18 13
49 40 36 36 18 9 7 6 3 11 11 10 8 7 11 19 12 9 15 24 14 27 30 37 33 20 31 21 18 19 24 25 25 27 30 39 33 20 21 19 21 23 22 19 18
46 32 25 23 16 4 5 5 10 12 6 7 4 4 11 10 11 18 23 24 23 25 29 35 38 37 30 34 30 23 29 20 24 20 23 7 14 29 3 12 15 21 27 23 21
44 23 16 21 15 5 3 11 14 7 4 5 6 17 14 9 14 14 19 27 31 36 35 35 39 28 25 38 34 25 29 24 27 24 20 17 14 11 11 26 26 23 24 28 23
46 9 15 22 5 0 13 13 9 6 11 14 18 20 19 9 10 14 25 25 29 18 33 29 40 21 13 27 25 31 23 33 41 40 32 34 44 23 25 24 23 30 31 33 26
49 7 21 22 11 3 10 6 5 13 16 12 16 8 20 18 22 17 16 13 18 8 21 28 33 32 25 16 23 28 30 21 23 32 44 32 35 20 9 26 28 28 36 39 35
32 6 21 26 6 13 12 7 4 12 22 14 11 19 24 25 18 25 14 15 22 24 35 27 33 37 37 30 36 23 32 32 31 32 34 38 29 13 5 17 24 26 39 27 30
21 5 36 12 4 5 3 8 12 15 19 8 13 14 16 15 23 27 26 23 22 31 28 17 13 30 37 34 29 35 43 35 26 34 35 37 41 25 22 20 16 19 17 24 19
25 11 21 22 4 7 7 5 7 16 15 10 8 8 10 16 15 21 20 13 30 28 21 21 16 26 39 36 35 33 51 45 46 32 46 40 41 10 7 18 21 28 22 28 38
16 8 11 23 16 10 11 4 6 11 4 11 15 12 16 20 20 18 22 20 21 38 29 17 30 36 36 46 42 39 42 49 46 32 51 42 59 49 28 24 28 40 52 45 47
13 8 6 7 8 11 7 5 9 5 5 12 8 9 15 13 25 31 22 33 42 35 40 11 37 37 48 50 41 37 40 48 47 56 55 55 52 49 40 36 35 61 43 43 48
10 11 8 14 7 11 2 4 10 5 9 10 11 9 18 26 29 40 37 31 27 22 27 29 32 29 50 45 46 48 47 47 47 51 39 51 54 50 64 68 52 38 35 33 30
9 9 7 1 4 9 5 5 7 14 12 18 20 24 29 30 27 34 42 49 49 40 38 37 34 34 52 37 44 44 44 48 53 46 49 46 54 62 51 24 22 25 24 25 27
Wind_Direction_850mb
21 14 13 17 18 19 20 32 39 56 93 106 54 16 39 74 110 100 96 128 108 115 128 139 133 160 160 165 181 218 232 203 191 192 145 156 193 127 126 118 88 105 108 115 103
21 16 8 6 11 12 14 27 53 78 103 101 53 25 103 111 112 111 105 101 97 94 106 168 162 162 162 171 181 240 244 189 144 161 183 163 244 154 221 178 166 162 158 137 135
21 15 9 2 1 8 8 16 43 81 104 102 30 17 141 149 178 133 118 97 83 86 94 140 163 189 170 191 167 176 247 145 166 169 230 238 240 226 245 225 215 226 217 226 244
17 15 10 1 354 354 7 7 13 20 355 323 345 3 107 190 285 163 132 105 95 78 71 154 183 192 191 185 175 195 160 184 159 180 230 236 278 256 243 259 246 237 233 241 243
13 11 7 1 351 339 344 355 340 332 318 309 317 346 131 203 172 156 133 111 83 72 71 120 197 196 197 173 180 232 172 191 200 233 236 247 257 266 246 235 240 233 233 230 240
9 6 3 358 348 333 316 313 311 311 305 301 304 306 283 235 183 175 167 152 169 123 67 72 128 203 175 192 233 153 210 214 204 191 202 229 235 226 211 211 226 242 241 235 240
8 3 359 355 348 333 311 298 289 294 297 300 301 294 250 139 183 190 207 214 210 204 174 124 125 232 185 182 180 203 232 194 197 179 174 244 231 224 194 226 242 248 248 246 245
4 4 358 352 348 335 320 303 294 296 292 286 282 287 250 217 205 210 214 217 219 228 199 199 189 179 246 150 198 224 236 207 164 198 157 238 265 171 235 241 259 265 262 259 253
356 356 358 354 347 338 329 321 295 286 285 290 274 243 247 209 208 209 200 196 179 188 175 181 192 237 191 223 208 199 238 222 166 214 198 222 272 225 244 266 271 266 261 260 258
351 348 347 353 349 341 328 325 310 295 275 270 229 245 226 204 188 177 183 177 187 174 175 205 217 225 216 226 244 227 233 212 249 170 239 258 258 255 261 270 275 263 256 253 255
347 344 340 342 347 342 337 345 305 230 240 257 279 243 158 180 190 197 193 188 201 227 242 203 255 228 237 246 303 280 268 265 262 262 267 266 272 271 271 274 267 243 234 235 247
347 342 341 333 341 351 1 331 31 311 297 277 260 247 240 211 208 204 193 208 207 238 191 225 236 269 240 245 250 247 256 256 259 258 269 275 274 273 273 262 245 247 233 237 239
350 344 346 335 326 347 260 192 317 329 272 295 236 239 213 205 215 209 205 212 226 235 231 271 317 293 212 224 243 240 259 270 275 289 266 267 274 256 229 224 225 244 241 239 245
351 347 355 353 353 325 198 242 308 326 271 132 162 139 155 186 219 222 207 207 218 248 252 272 113 222 233 244 244 269 257 258 272 272 273 87 285 269 241 239 243 237 222 224 231
350 346 353 2 330 314 226 228 300 311 280 112 108 143 177 210 99 179 206 215 244 221 237 267 207 222 243 253 268 274 312 273 272 270 276 259 253 274 192 227 205 201 204 199 196
349 344 347 -0 9 333 219 234 286 235 235 132 110 170 201 220 229 141 197 219 267 265 243 262 270 264 258 268 261 272 269 254 255 259 258 250 239 256 228 219 196 186 188 176 163
350 348 347 355 336 275 184 196 231 246 90 105 77 341 300 260 250 236 224 209 237 244 249 243 242 241 252 254 226 246 254 258 243 216 252 100 254 245 246 212 199 190 187 180 170
351 343 358 14 11 156 209 219 243 66 331 40 317 302 268 331 246 286 264 260 252 255 272 275 275 243 223 237 261 231 249 248 274 267 268 144 243 248 279 238 221 224 215 189 191
353 357 13 1 354 286 255 237 353 16 357 328 305 273 259 170 323 296 276 279 289 277 258 276 276 250 264 255 255 246 237 267 275 271 271 263 267 229 219 240 232 216 214 200 189
348 68 3 354 345 294 250 278 119 39 339 316 289 271 288 305 305 291 300 319 297 276 297 285 290 267 265 246 245 253 277 230 230 262 261 258 251 255 190 214 223 226 211 211 196
357 318 339 346 324 244 263 49 44 36 13 335 319 293 291 293 290 292 284 295 16 339 322 292 279 269 270 235 255 224 236 231 264 263 273 273 268 35 4 254 241 220 216 217 210
1 302 346 9 235 9 13 357 336 356 2 341 301 309 303 310 291 280 273 268 20 342 312 306 292 278 267 270 271 283 273 256 248 256 249 258 264 284 282 220 230 215 213 209 223
340 317 350 23 44 44 359 324 6 1 18 8 311 12 351 298 295 269 279 302 348 333 355 337 268 289 275 248 243 244 248 253 255 264 257 259 263 155 243 259 237 243 233 245 273
337 329 21 48 51 0 358 18 353 23 61 349 314 293 308 283 266 280 290 290 327 315 332 293 261 255 263 275 312 301 282 261 250 236 243 241 262 263 228 205 231 248 276 278 276
358 38 10 341 51 353 303 329 322 334 340 318 277 257 318 289 304 279 293 314 299 279 279 261 275 277 272 275 279 284 295 301 293 256 251 254 249 256 268 275 306 288 291 280 272
357 344 324 291 296 301 139 86 327 348 304 308 261 295 295 287 284 290 292 286 284 289 273 274 270 287 277 278 278 275 258 242 255 280 286 283 268 267 275 279 266 276 268 260 256
14 337 309 221 287 292 40 25 324 316 261 250 294 301 293 298 300 290 282 273 266 272 272 272 269 265 269 282 281 261 255 250 254 240 237 249 261 269 272 292 258 247 254 260 265